Regional Weather Roundup
Issued by NWS Albany, NY

Home | Current Version | Previous Version | Text Only | Print | Product List | Glossary On
Versions: 1 2 3 4 5 6 7 8 9 10 11 12 13 14 15 16 17 18 19 20 21 22 23 24 25 26 27 28 29 30 31 32 33 34 35 36 37 38 39 40 41 42 43 44 45 46 47 48 49 50
000
ASUS41 KALY 040410
RWRALY

NEW YORK STATE HOURLY WEATHER ROUNDUP
NATIONAL WEATHER SERVICE ALBANY NY
1200 AM EDT FRI SEP 04 2015

NOTE: "FAIR" INDICATES FEW OR NO CLOUDS BELOW 12,000 FEET WITH NO
SIGNIFICANT WEATHER AND/OR NO OBSTRUCTIONS TO VISIBILITY.

NYZ032-033-038>043-046>054-057>066-NYZ062>081-040500-
EAST


CITY           SKY/WX    TMP DP  RH WIND       PRES   REMARKS
ALBANY         MOCLDY    74  61  63 N10       29.96R
GLENS FALLS    PTCLDY    67  56  67 N6        29.98R
POUGHKEEPSIE   PTCLDY    73  66  78 CALM      29.92R
NEWBURGH       CLEAR     75  68  78 VRB3      29.95R
MONTGOMERY     PTCLDY    71  67  87 CALM      29.93S
WHITE PLAINS   MOCLDY    74  64  71 SW3       29.91R
ISLIP          MOCLDY    74  69  85 CALM      29.89R
NEW YORK CITY  MOCLDY    83  65  54 CALM      29.88S
CENTRAL PARK   PTCLDY    82  65  56 CALM      29.92S
$$

NYZ005>009-017-018-044>046-055-056-040500-
CENTRAL


CITY           SKY/WX    TMP DP  RH WIND       PRES   REMARKS
FULTON         CLEAR     68  65  90 NE5       29.98R
SYRACUSE       PTCLDY    70  69  97 NW3       29.97R FOG
ROME           PTCLDY    69  65  86 SE3       29.98R
ELMIRA         CLEAR     68  66  93 CALM      29.98R
BINGHAMTON     CLEAR     70  68  93 N6        30.00R
MONTICELLO     PTCLDY    66  64  94 CALM      30.00R
$$

NYZ026>034-041>043-040500-
NORTH


CITY           SKY/WX    TMP DP  RH WIND       PRES   REMARKS
WATERTOWN      CLEAR     66  63  90 E5        29.99R FOG
FORT DRUM      NOT AVBL
MASSENA        PTCLDY    66  62  87 E5        30.02R
SARANAC LAKE   CLEAR     52  50  93 CALM      30.05R FOG
PLATTSBURGH    CLEAR     64  51  62 NW7       30.02R
$$

NYZ001>004-010>016-019>021-040500-
WEST


CITY           SKY/WX    TMP DP  RH WIND       PRES   REMARKS
NIAGARA FALLS  MOCLDY    69  66  90 E5        29.96S FOG
BUFFALO        MOCLDY    73  69  87 E5        29.97S
DUNKIRK        PTCLDY    69  67  93 SE3       29.97S FOG
JAMESTOWN      MOCLDY    68  66  94 CALM      30.01F VSB<1/4
WELLSVILLE     CLEAR     69  66  90 CALM      30.06R FOG
ROCHESTER      MOCLDY    71  66  84 CALM      29.99R
PENN YAN       CLEAR     65  64  97 CALM      30.00R FOG
$$

             KEY
       WCI = WIND CHILL INDEX
       VSB = VISIBILITY
       HX  = HEAT INDEX
$$


USA.gov is the U.S. government's official web portal to all federal, state and local government web resources and services.